| time (UTC) | temp F | wind direction | speed MPH | gust MPH | rain 1hr in | rain 24hr in | rain mn in | humidity % | barometer mb |
| 20260507064015 | 34 | 0.0 | 0.0 | 0.00 | 0.00 | 0.00 | 62 | 1025.5 | |
| 20260507063015 | 33 | 0.0 | 2.0 | 0.00 | 0.00 | 0.00 | 65 | 1025.4 | |
| 20260507062015 | 33 | 0.0 | 1.0 | 0.00 | 0.00 | 0.00 | 65 | 1024.6 | |
| 20260507061016 | 33 | 0.0 | 0.0 | 0.00 | 0.00 | 0.00 | 65 | 1024.5 | |
| 20260507060016 | 34 | 0.0 | 0.0 | 0.00 | 0.00 | 0.00 | 65 | 1024.3 | |
| 20260507055015 | 34 | 0.0 | 0.0 | 0.00 | 0.00 | 0.00 | 64 | 1023.5 | |
| 20260507054015 | 35 | 0.0 | 0.0 | 0.00 | 0.00 | 0.00 | 62 | 1024.0 | |
| 20260507053016 | 36 | 0.0 | 0.0 | 0.00 | 0.00 | 0.00 | 63 | 1023.9 | |
| 20260507052016 | 36 | 0.0 | 1.0 | 0.00 | 0.00 | 0.00 | 62 | 1023.3 | |
| 20260507051016 | 37 | 0.0 | 2.0 | 0.00 | 0.00 | 0.00 | 62 | 1023.9 | |
| 20260507050015 | 37 | 0.0 | 0.0 | 0.00 | 0.00 | 0.00 | 60 | 1023.9 | |
| 20260507045016 | 39 | 0.0 | 0.0 | 0.00 | 0.00 | 0.00 | 59 | 1023.7 | |
| 20260507044015 | 40 | 0.0 | 0.0 | 0.00 | 0.00 | 0.00 | 57 | 1024.3 | |
| 20260507043016 | 41 | 0.0 | 0.0 | 0.00 | 0.00 | 0.00 | 55 | 1024.3 | |
| 20260507042036 | 41 | 0.0 | 2.0 | 0.00 | 0.00 | 0.00 | 54 | 1023.8 | |
| 20260507041016 | 42 | 0.0 | 0.0 | 0.00 | 0.00 | 0.00 | 54 | 1024.3 | |
| 20260507040016 | 44 | 0.0 | 1.0 | 0.00 | 0.00 | 0.00 | 52 | 1024.2 | |
| 20260507035055 | 45 | 0.0 | 0.0 | 0.00 | 0.00 | 0.00 | 49 | 1024.0 | |
| 20260507034015 | 47 | 0.0 | 0.0 | 0.00 | 0.00 | 0.00 | 48 | 1024.4 | |
| 20260507033015 | 48 | 0.0 | 0.0 | 0.00 | 0.00 | 0.00 | 45 | 1024.8 | |
| 20260507032015 | 49 | 0.0 | 0.0 | 0.00 | 0.00 | 0.00 | 44 | 1024.3 | |
| 20260507031035 | 50 | 0.0 | 1.0 | 0.00 | 0.00 | 0.00 | 42 | 1024.7 | |
| 20260507030017 | 50 | 0.0 | 1.0 | 0.00 | 0.00 | 0.00 | 42 | 1024.6 | |
| 20260507025057 | 51 | 0.0 | 2.0 | 0.00 | 0.00 | 0.00 | 41 | 1024.0 | |
| 20260507024017 | 53 | 0.0 | 1.0 | 0.00 | 0.00 | 0.00 | 40 | 1024.4 | |
| 20260507023017 | 54 | 0.0 | 1.0 | 0.00 | 0.00 | 0.00 | 38 | 1024.6 | |
| 20260507022017 | 56 | 0.0 | 1.0 | 0.00 | 0.00 | 0.00 | 36 | 1024.1 | |
| 20260507021017 | 58 | 0.0 | 1.0 | 0.00 | 0.00 | 0.00 | 34 | 1024.5 | |
| 20260507020017 | 59 | 0.0 | 1.0 | 0.00 | 0.00 | 0.00 | 34 | 1024.5 | |
| 20260507015037 | 61 | 270 | 4.0 | 13.0 | 0.00 | 0.00 | 0.00 | 29 | 1024.4 |
| 20260507014017 | 61 | 225 | 1.0 | 10.0 | 0.00 | 0.00 | 0.00 | 30 | 1024.4 |
| 20260507013017 | 62 | 0.0 | 2.0 | 0.00 | 0.00 | 0.00 | 30 | 1024.5 | |
| 20260507012017 | 61 | 293 | 2.0 | 8.0 | 0.00 | 0.00 | 0.00 | 31 | 1024.0 |
| 20260507011037 | 60 | 23 | 1.0 | 3.0 | 0.00 | 0.00 | 0.00 | 31 | 1024.0 |
| 20260507010017 | 60 | 293 | 3.0 | 9.0 | 0.00 | 0.00 | 0.00 | 31 | 1024.1 |
| 20260507005017 | 61 | 315 | 4.0 | 13.0 | 0.00 | 0.00 | 0.00 | 30 | 1023.4 |
| 20260507004017 | 61 | 23 | 2.0 | 9.0 | 0.00 | 0.00 | 0.00 | 29 | 1023.5 |
| 20260507003017 | 62 | 315 | 5.0 | 14.0 | 0.00 | 0.00 | 0.00 | 30 | 1023.6 |
| 20260507002037 | 63 | 293 | 1.0 | 4.0 | 0.00 | 0.00 | 0.00 | 30 | 1023.5 |
| 20260507001037 | 62 | 315 | 1.0 | 4.0 | 0.00 | 0.00 | 0.00 | 31 | 1023.0 |
| 20260507000017 | 61 | 293 | 2.0 | 7.0 | 0.00 | 0.02 | 0.00 | 29 | 1023.0 |
| 20260506235017 | 62 | 315 | 5.0 | 15.0 | 0.00 | 0.02 | 0.00 | 29 | 1023.7 |
| 20260506234017 | 62 | 23 | 1.0 | 5.0 | 0.00 | 0.02 | 0.00 | 29 | 1023.6 |
| 20260506233017 | 61 | 0 | 1.0 | 5.0 | 0.00 | 0.02 | 0.00 | 28 | 1023.7 |
| 20260506232017 | 62 | 248 | 2.0 | 7.0 | 0.00 | 0.02 | 0.00 | 28 | 1023.6 |
| 20260506231017 | 62 | 315 | 2.0 | 6.0 | 0.00 | 0.02 | 0.00 | 29 | 1024.3 |
| 20260506230057 | 63 | 270 | 2.0 | 11.0 | 0.00 | 0.05 | 0.00 | 28 | 1024.3 |
| 20260506225037 | 63 | 270 | 7.0 | 20.0 | 0.00 | 0.05 | 0.00 | 27 | 1024.8 |
| 20260506224017 | 63 | 270 | 7.0 | 18.0 | 0.00 | 0.05 | 0.00 | 26 | 1024.9 |
| 20260506223017 | 63 | 270 | 7.0 | 15.0 | 0.00 | 0.05 | 0.00 | 27 | 1024.8 |
| 20260506222017 | 62 | 293 | 7.0 | 17.0 | 0.00 | 0.05 | 0.00 | 28 | 1024.6 |
| 20260506221016 | 63 | 293 | 9.0 | 16.0 | 0.00 | 0.05 | 0.00 | 29 | 1025.2 |
| 20260506220037 | 61 | 293 | 4.0 | 16.0 | 0.00 | 0.05 | 0.00 | 28 | 1024.9 |
| 20260506215016 | 61 | 293 | 5.0 | 14.0 | 0.00 | 0.05 | 0.00 | 30 | 1024.6 |
| 20260506214036 | 61 | 270 | 9.0 | 14.0 | 0.00 | 0.05 | 0.00 | 29 | 1024.8 |
| 20260506213016 | 62 | 270 | 5.0 | 15.0 | 0.00 | 0.05 | 0.00 | 30 | 1025.3 |
| 20260506212016 | 60 | 293 | 10.0 | 22.0 | 0.00 | 0.05 | 0.00 | 32 | 1024.9 |
| 20260506211016 | 60 | 293 | 8.0 | 22.0 | 0.00 | 0.05 | 0.00 | 34 | 1025.0 |
| 20260506210036 | 60 | 293 | 6.0 | 13.0 | 0.00 | 0.05 | 0.00 | 35 | 1025.3 |
| 20260506205057 | 59 | 293 | 5.0 | 16.0 | 0.00 | 0.05 | 0.00 | 37 | 1025.1 |
| 20260506204016 | 59 | 293 | 4.0 | 13.0 | 0.00 | 0.05 | 0.00 | 32 | 1025.0 |
| 20260506203016 | 59 | 293 | 2.0 | 8.0 | 0.00 | 0.05 | 0.00 | 35 | 1024.9 |
| 20260506202017 | 60 | 270 | 2.0 | 4.0 | 0.00 | 0.05 | 0.00 | 33 | 1024.8 |
| 20260506201016 | 60 | 248 | 4.0 | 19.0 | 0.00 | 0.05 | 0.00 | 34 | 1025.1 |
| 20260506200016 | 59 | 293 | 8.0 | 19.0 | 0.00 | 0.05 | 0.00 | 34 | 1024.5 |
| 20260506195036 | 59 | 248 | 8.0 | 19.0 | 0.00 | 0.05 | 0.00 | 34 | 1024.6 |
| 20260506194016 | 58 | 293 | 1.0 | 5.0 | 0.00 | 0.05 | 0.00 | 31 | 1024.1 |
| 20260506193017 | 57 | 293 | 4.0 | 15.0 | 0.00 | 0.05 | 0.00 | 34 | 1024.0 |
| 20260506192016 | 57 | 270 | 1.0 | 6.0 | 0.00 | 0.05 | 0.00 | 35 | 1024.0 |
| 20260506191036 | 57 | 270 | 4.0 | 17.0 | 0.00 | 0.05 | 0.00 | 36 | 1024.1 |
| 20260506190137 | 58 | 270 | 8.0 | 21.0 | 0.00 | 0.05 | 0.00 | 35 | 1024.6 |
| 20260506185016 | 58 | 270 | 3.0 | 16.0 | 0.00 | 0.05 | 0.00 | 36 | 1024.7 |
| 20260506184016 | 57 | 248 | 6.0 | 13.0 | 0.00 | 0.05 | 0.00 | 38 | 1024.0 |
| 20260506183016 | 57 | 293 | 5.0 | 14.0 | 0.00 | 0.05 | 0.00 | 40 | 1024.2 |
| 20260506182016 | 55 | 315 | 1.0 | 4.0 | 0.00 | 0.05 | 0.00 | 42 | 1024.1 |
| 20260506181016 | 56 | 270 | 3.0 | 11.0 | 0.00 | 0.05 | 0.00 | 42 | 1024.7 |
| 20260506180016 | 55 | 270 | 2.0 | 6.0 | 0.00 | 0.05 | 0.00 | 44 | 1024.3 |
| 20260506175016 | 54 | 293 | 1.0 | 4.0 | 0.00 | 0.05 | 0.00 | 44 | 1024.4 |
| 20260506174016 | 54 | 270 | 1.0 | 5.0 | 0.00 | 0.05 | 0.00 | 44 | 1024.4 |
| 20260506173016 | 53 | 293 | 2.0 | 9.0 | 0.00 | 0.05 | 0.00 | 45 | 1023.9 |
| 20260506172016 | 53 | 293 | 2.0 | 9.0 | 0.00 | 0.05 | 0.00 | 46 | 1024.6 |
| 20260506171016 | 52 | 248 | 2.0 | 6.0 | 0.00 | 0.05 | 0.00 | 46 | 1024.4 |
| 20260506170016 | 51 | 293 | 2.0 | 6.0 | 0.00 | 0.05 | 0.00 | 47 | 1023.9 |
| 20260506165016 | 51 | 293 | 2.0 | 4.0 | 0.00 | 0.05 | 0.00 | 47 | 1024.4 |
| 20260506164016 | 51 | 270 | 1.0 | 3.0 | 0.00 | 0.05 | 0.00 | 47 | 1024.3 |
| 20260506163016 | 50 | 270 | 1.0 | 6.0 | 0.00 | 0.05 | 0.00 | 50 | 1023.7 |
| 20260506162036 | 49 | 293 | 2.0 | 6.0 | 0.00 | 0.05 | 0.00 | 50 | 1023.6 |
| 20260506161016 | 49 | 270 | 2.0 | 6.0 | 0.00 | 0.05 | 0.00 | 51 | 1023.7 |
| 20260506160017 | 48 | 270 | 2.0 | 6.0 | 0.00 | 0.05 | 0.00 | 52 | 1023.6 |
| 20260506155016 | 48 | 270 | 1.0 | 4.0 | 0.00 | 0.05 | 0.00 | 54 | 1023.1 |
| 20260506154016 | 47 | 270 | 1.0 | 7.0 | 0.00 | 0.05 | 0.00 | 58 | 1023.1 |
| 20260506153016 | 46 | 293 | 1.0 | 3.0 | 0.00 | 0.05 | 0.00 | 57 | 1023.2 |
| 20260506152016 | 45 | 270 | 2.0 | 8.0 | 0.00 | 0.05 | 0.00 | 61 | 1022.7 |
| 20260506151016 | 45 | 293 | 2.0 | 8.0 | 0.00 | 0.05 | 0.00 | 59 | 1022.6 |
| 20260506150016 | 44 | 270 | 2.0 | 7.0 | 0.00 | 0.05 | 0.00 | 60 | 1022.4 |
| 20260506145016 | 43 | 248 | 2.0 | 6.0 | 0.00 | 0.05 | 0.00 | 61 | 1021.9 |
| 20260506144016 | 43 | 225 | 2.0 | 5.0 | 0.00 | 0.05 | 0.00 | 63 | 1021.8 |
| 20260506143016 | 42 | 225 | 1.0 | 5.0 | 0.00 | 0.05 | 0.00 | 65 | 1022.0 |
| 20260506142016 | 41 | 248 | 2.0 | 5.0 | 0.00 | 0.05 | 0.00 | 65 | 1021.9 |
| 20260506141016 | 40 | 225 | 2.0 | 5.0 | 0.00 | 0.05 | 0.00 | 67 | 1021.3 |
| 20260506140036 | 38 | 225 | 1.0 | 2.0 | 0.00 | 0.05 | 0.00 | 73 | 1020.7 |
| 20260506135016 | 37 | 0.0 | 1.0 | 0.00 | 0.05 | 0.00 | 75 | 1020.6 | |
| 20260506134016 | 36 | 0.0 | 4.0 | 0.00 | 0.05 | 0.00 | 76 | 1020.0 | |
| 20260506133015 | 35 | 248 | 1.0 | 3.0 | 0.00 | 0.05 | 0.00 | 74 | 1019.8 |
| 20260506132016 | 35 | 225 | 2.0 | 4.0 | 0.00 | 0.05 | 0.00 | 75 | 1019.9 |
| 20260506131056 | 34 | 248 | 1.0 | 3.0 | 0.00 | 0.05 | 0.00 | 76 | 1019.3 |
| 20260506130015 | 34 | 248 | 1.0 | 5.0 | 0.00 | 0.05 | 0.00 | 76 | 1019.2 |
| 20260506125015 | 34 | 225 | 1.0 | 3.0 | 0.00 | 0.05 | 0.00 | 78 | 1019.1 |
| 20260506124015 | 33 | 225 | 2.0 | 4.0 | 0.00 | 0.05 | 0.00 | 79 | 1019.1 |
| 20260506123015 | 31 | 225 | 1.0 | 4.0 | 0.00 | 0.05 | 0.00 | 82 | 1018.4 |
| 20260506122015 | 29 | 225 | 1.0 | 3.0 | 0.00 | 0.05 | 0.00 | 86 | 1017.7 |
| 20260506121015 | 29 | 225 | 1.0 | 3.0 | 0.00 | 0.05 | 0.00 | 83 | 1017.5 |
| 20260506120015 | 30 | 0.0 | 3.0 | 0.00 | 0.05 | 0.00 | 81 | 1017.4 | |
| 20260506115015 | 33 | 225 | 1.0 | 3.0 | 0.00 | 0.05 | 0.00 | 79 | 1018.4 |
| 20260506114016 | 32 | 203 | 2.0 | 4.0 | 0.00 | 0.05 | 0.00 | 81 | 1017.9 |
| 20260506113016 | 31 | 225 | 1.0 | 3.0 | 0.00 | 0.05 | 0.00 | 84 | 1017.9 |
| 20260506112015 | 32 | 0.0 | 1.0 | 0.00 | 0.05 | 0.00 | 77 | 1017.2 | |
| 20260506111016 | 33 | 225 | 1.0 | 2.0 | 0.00 | 0.05 | 0.00 | 80 | 1017.7 |
| 20260506110015 | 32 | 225 | 1.0 | 3.0 | 0.00 | 0.05 | 0.00 | 81 | 1017.7 |
| 20260506105015 | 33 | 225 | 1.0 | 4.0 | 0.00 | 0.05 | 0.00 | 78 | 1017.6 |
| 20260506104036 | 33 | 0.0 | 2.0 | 0.00 | 0.05 | 0.00 | 79 | 1017.5 | |
| 20260506103015 | 34 | 225 | 1.0 | 3.0 | 0.00 | 0.05 | 0.00 | 79 | 1017.3 |
| 20260506102017 | 34 | 225 | 1.0 | 3.0 | 0.00 | 0.05 | 0.00 | 79 | 1017.8 |
| 20260506101037 | 34 | 225 | 1.0 | 4.0 | 0.00 | 0.05 | 0.00 | 79 | 1017.8 |
| 20260506100017 | 33 | 248 | 1.0 | 6.0 | 0.00 | 0.05 | 0.00 | 80 | 1017.8 |
| 20260506095017 | 32 | 225 | 1.0 | 4.0 | 0.00 | 0.05 | 0.00 | 83 | 1018.3 |
| 20260506094017 | 30 | 248 | 1.0 | 3.0 | 0.00 | 0.05 | 0.00 | 83 | 1017.6 |
| 20260506093017 | 32 | 225 | 2.0 | 6.0 | 0.00 | 0.05 | 0.00 | 79 | 1018.1 |
| 20260506092017 | 33 | 225 | 1.0 | 3.0 | 0.00 | 0.05 | 0.00 | 80 | 1018.1 |
| 20260506091017 | 34 | 248 | 1.0 | 3.0 | 0.00 | 0.05 | 0.00 | 79 | 1018.1 |
| 20260506090017 | 33 | 180 | 1.0 | 3.0 | 0.00 | 0.05 | 0.00 | 80 | 1018.1 |
| 20260506085037 | 33 | 225 | 1.0 | 3.0 | 0.00 | 0.05 | 0.00 | 81 | 1019.0 |
| 20260506084017 | 32 | 225 | 2.0 | 5.0 | 0.00 | 0.05 | 0.00 | 82 | 1018.4 |
| 20260506083017 | 32 | 203 | 1.0 | 3.0 | 0.00 | 0.05 | 0.00 | 84 | 1018.5 |
| 20260506082017 | 31 | 225 | 2.0 | 4.0 | 0.00 | 0.05 | 0.00 | 85 | 1019.1 |
| 20260506081017 | 31 | 0.0 | 2.0 | 0.00 | 0.05 | 0.00 | 86 | 1019.1 | |
| 20260506073037 | 29 | 0.0 | 0.0 | 0.00 | 0.05 | 0.00 | 89 | 1019.0 | |
| 20260506072017 | 30 | 0.0 | 1.0 | 0.00 | 0.05 | 0.00 | 89 | 1019.9 | |
| 20260506071017 | 31 | 0.0 | 0.0 | 0.00 | 0.05 | 0.00 | 91 | 1019.8 |